Simultaneous Nadir Overpasses (SNOs) Predictions

Prediction of SNOs between FY3D and NOAA-19 Satellite Orbit:

Table of predicted SNOs for the next 14.0 days since TLE Epoch: 5/27/2023
Index Date (FY3D) Time (FY3D) Lat,Lon (FY3D) SZA (FY3D ) Date (NOAA-19) Time (NOAA-19) Lat,Lon (NOAA-19) SZA (NOAA-19 ) Distance(km) Time Diff (sec)
1 06/05/2023 15:47:34 76.11, -64.26 53.59 06/05/2023 15:46:30 76.11, -67.94 53.75 98.27 64
2 06/05/2023 16:38:31 -76.62, 101.17 125.85 06/05/2023 16:37:19 -76.59, 101.18 125.87 3.21 72
3 06/05/2023 17:29:16 76.59, -91.40 54.12 06/05/2023 17:28:18 76.59, -91.55 54.13 3.84 58
4 06/05/2023 18:20:02 -76.60, 75.86 125.88 06/05/2023 18:19:17 -76.63, 75.88 125.84 3.85 45
5 06/05/2023 19:10:48 76.61,-116.89 54.14 06/05/2023 19:10:16 76.64,-116.85 54.17 2.71 32
6 06/05/2023 20:01:34 -76.63, 50.37 125.86 06/05/2023 20:01:16 -76.64, 50.40 125.84 1.35 18
7 06/05/2023 20:52:20 76.64,-142.38 54.16 06/05/2023 20:52:15 76.64,-142.33 54.16 1.25 5
8 06/05/2023 21:43:06 -76.65, 24.88 125.83 06/05/2023 21:43:15 -76.64, 24.92 125.85 1.68 9
9 06/05/2023 22:33:52 76.67,-167.87 54.19 06/05/2023 22:34:14 76.65,-167.81 54.16 3.04 22
10 06/05/2023 23:24:37 -76.64, -0.43 125.86 06/05/2023 23:25:14 -76.64, -0.56 125.85 3.50 37
11 06/06/2023 00:15:23 76.65, 166.82 54.16 06/06/2023 00:16:13 76.65, 166.72 54.15 2.66 50
12 06/06/2023 01:06:09 -76.66, -25.92 125.83 06/06/2023 01:07:12 -76.69, -25.86 125.82 3.20 63
13 06/06/2023 01:56:57 76.77, 140.98 54.29 06/06/2023 01:58:10 76.74, 141.60 54.22 15.99 73



Historial Predications of SNOs between FY3D and NOAA-19
